This is the latest recevied weather packets stored in our database for station/object AI5BL. If no packets are shown the sender has not sent any weather packets the latest 10 day(s).
| Time | Temp. | Humidity | Pressure | Rain* | Wind** | Luminosity | Snow |
|---|---|---|---|---|---|---|---|
| 1788041269 | 32.22° C | 55% | 1017.6 hPa | 0 mm | - | 101 W/m² | - |
| 1788040968 | 33.33° C | 53% | 1017.7 hPa | 0 mm | - | 75 W/m² | - |
| 1788040667 | 32.78° C | 53% | 1017.8 hPa | 0 mm | - | 77 W/m² | - |
| 1788040362 | 32.78° C | 61% | 1017.8 hPa | 0 mm | - | 96 W/m² | - |
| 1788040057 | 32.22° C | 58% | 1017.8 hPa | 0 mm | - | 70 W/m² | - |
| 1788039753 | 32.22° C | 59% | 1017.8 hPa | 0 mm | - | 73 W/m² | - |
| 1788039452 | 32.22° C | 62% | 1017.7 hPa | 0 mm | - | 65 W/m² | - |
| 1788039148 | 32.22° C | 57% | 1017.9 hPa | 0 mm | - | 51 W/m² | - |
| 1788038844 | 32.78° C | 54% | 1017.9 hPa | 0 mm | - | 48 W/m² | - |
| 1788038538 | 33.33° C | 53% | 1017.9 hPa | 0 mm | - | 49 W/m² | - |
| 1788038238 | 33.33° C | 55% | 1017.7 hPa | 0 mm | - | 57 W/m² | - |
| 1788037933 | 33.33° C | 53% | 1018 hPa | 0 mm | - | 106 W/m² | - |
| 1788037627 | 32.22° C | 63% | 1018.1 hPa | 0 mm | - | 184 W/m² | - |
| 1788037323 | 32.78° C | 68% | 1017.8 hPa | 0 mm | - | 139 W/m² | - |
| 1788037022 | 33.33° C | 61% | 1017.9 hPa | 0 mm | - | 124 W/m² | - |
| 1788036718 | 32.22° C | 56% | 1018.2 hPa | 0 mm | - | 115 W/m² | - |
| 1788036414 | 32.78° C | 56% | 1018.3 hPa | 0 mm | - | 105 W/m² | - |
| 1788036108 | 32.78° C | 56% | 1018.2 hPa | 0 mm | - | 124 W/m² | - |
| 1788035822 | 33.33° C | 53% | 1018.3 hPa | 0 mm | - | 173 W/m² | - |
| 1788035504 | 33.33° C | 59% | 1018.1 hPa | 0 mm | - | 175 W/m² | - |
| 1788035198 | 32.78° C | 64% | 1018.4 hPa | 0 mm | - | 164 W/m² | - |
| 1788034895 | 32.78° C | 54% | 1018.4 hPa | 0 mm | - | 158 W/m² | - |
| 1788034590 | 31.67° C | 65% | 1018.6 hPa | 0 mm | - | 196 W/m² | - |
| 1788034286 | 32.22° C | 64% | 1018.6 hPa | 0 mm | - | 148 W/m² | - |
| 1788033986 | 32.22° C | 63% | 1018.7 hPa | 0 mm | - | 100 W/m² | - |
* Rain latest hour (hover to see other rain measurements)
** Current wind speed in m/s (hover to see current wind gust speed)